| time (UTC) | temp F | wind direction | speed MPH | gust MPH | rain 1hr in | rain 24hr in | rain mn in | humidity % | barometer mb |
| 20260506043040 | 60 | 0 | 0.0 | 0.0 | 0.00 | 0.06 | 0.00 | 85 | 1009.0 |
| 20260506041540 | 61 | 0 | 0.0 | 0.0 | 0.00 | 0.06 | 0.00 | 83 | 1008.6 |
| 20260506040039 | 61 | 0 | 0.0 | 0.0 | 0.00 | 0.06 | 0.00 | 82 | 1008.5 |
| 20260506034537 | 61 | 0 | 0.0 | 0.0 | 0.00 | 0.06 | 0.06 | 81 | 1008.1 |
| 20260506033036 | 62 | 0 | 0.0 | 0.0 | 0.00 | 0.06 | 0.06 | 80 | 1008.1 |
| 20260506031542 | 63 | 0 | 0.0 | 0.0 | 0.00 | 0.06 | 0.06 | 78 | 1008.1 |
| 20260506030040 | 63 | 297 | 0.0 | 2.0 | 0.00 | 0.06 | 0.06 | 74 | 1008.5 |
| 20260506024548 | 64 | 268 | 0.0 | 2.0 | 0.00 | 0.06 | 0.06 | 70 | 1008.3 |
| 20260506023038 | 64 | 0 | 0.0 | 0.0 | 0.00 | 0.06 | 0.06 | 67 | 1008.1 |
| 20260506021537 | 64 | 0 | 0.0 | 0.0 | 0.00 | 0.06 | 0.06 | 67 | 1008.0 |
| 20260506020048 | 64 | 0 | 0.0 | 1.0 | 0.00 | 0.06 | 0.06 | 65 | 1007.9 |
| 20260506014541 | 65 | 0 | 0.0 | 0.0 | 0.00 | 0.06 | 0.06 | 65 | 1008.0 |
| 20260506013039 | 65 | 0 | 0.0 | 2.0 | 0.00 | 0.06 | 0.06 | 63 | 1008.0 |
| 20260506011601 | 65 | 0 | 0.0 | 2.0 | 0.00 | 0.06 | 0.06 | 63 | 1007.8 |
| 20260506010038 | 66 | 0 | 0.0 | 4.0 | 0.00 | 0.06 | 0.06 | 61 | 1007.9 |
| 20260506004558 | 67 | 0 | 0.0 | 2.0 | 0.00 | 0.06 | 0.06 | 61 | 1007.9 |
| 20260506003043 | 67 | 0 | 0.0 | 5.0 | 0.00 | 0.06 | 0.06 | 61 | 1008.1 |
| 20260506001543 | 68 | 0 | 0.0 | 4.0 | 0.00 | 0.06 | 0.06 | 61 | 1008.1 |
| 20260506000106 | 68 | 124 | 1.0 | 7.0 | 0.00 | 0.06 | 0.06 | 59 | 1008.2 |
| 20260505234545 | 68 | 0 | 0.0 | 2.0 | 0.00 | 0.06 | 0.06 | 62 | 1007.9 |
| 20260505233037 | 69 | 0 | 0.0 | 4.0 | 0.00 | 0.06 | 0.06 | 61 | 1007.8 |
| 20260505231537 | 69 | 243 | 0.0 | 5.0 | 0.00 | 0.06 | 0.06 | 60 | 1007.8 |
| 20260505230100 | 69 | 0 | 0.0 | 3.0 | 0.00 | 0.06 | 0.06 | 62 | 1007.9 |
| 20260505224542 | 69 | 150 | 1.0 | 7.0 | 0.00 | 0.06 | 0.06 | 61 | 1007.9 |
| 20260505223040 | 70 | 0 | 0.0 | 2.0 | 0.00 | 0.06 | 0.06 | 63 | 1008.0 |
| 20260505221539 | 70 | 0 | 0.0 | 6.0 | 0.00 | 0.06 | 0.06 | 63 | 1008.2 |
| 20260505220040 | 70 | 226 | 0.0 | 4.0 | 0.00 | 0.06 | 0.06 | 63 | 1008.3 |
| 20260505214543 | 71 | 260 | 0.0 | 4.0 | 0.00 | 0.06 | 0.06 | 62 | 1008.2 |
| 20260505213042 | 71 | 101 | 1.0 | 6.0 | 0.00 | 0.06 | 0.06 | 61 | 1008.0 |
| 20260505211542 | 71 | 264 | 1.0 | 9.0 | 0.00 | 0.06 | 0.06 | 62 | 1008.1 |
| 20260505210039 | 72 | 0 | 0.0 | 5.0 | 0.00 | 0.06 | 0.06 | 62 | 1008.0 |
| 20260505204604 | 72 | 0 | 1.0 | 4.0 | 0.00 | 0.06 | 0.06 | 61 | 1008.1 |
| 20260505203042 | 72 | 0 | 0.0 | 2.0 | 0.00 | 0.06 | 0.06 | 62 | 1008.0 |
| 20260505201543 | 71 | 0 | 0.0 | 2.0 | 0.00 | 0.06 | 0.06 | 62 | 1008.0 |
| 20260505200039 | 71 | 0 | 0.0 | 2.0 | 0.00 | 0.06 | 0.06 | 60 | 1008.3 |
| 20260505194551 | 71 | 91 | 0.0 | 2.0 | 0.00 | 0.06 | 0.06 | 62 | 1008.4 |
| 20260505193039 | 71 | 227 | 0.0 | 4.0 | 0.00 | 0.06 | 0.06 | 61 | 1008.7 |
| 20260505191551 | 71 | 0 | 0.0 | 5.0 | 0.00 | 0.06 | 0.06 | 62 | 1008.8 |
| 20260505190043 | 71 | 238 | 1.0 | 5.0 | 0.00 | 0.06 | 0.06 | 60 | 1008.8 |
| 20260505184541 | 72 | 124 | 1.0 | 6.0 | 0.00 | 0.06 | 0.06 | 59 | 1008.7 |
| 20260505183040 | 74 | 82 | 1.0 | 7.0 | 0.00 | 0.06 | 0.06 | 56 | 1008.7 |
| 20260505181539 | 75 | 63 | 0.0 | 7.0 | 0.00 | 0.06 | 0.06 | 56 | 1008.7 |
| 20260505180045 | 73 | 82 | 0.0 | 7.0 | 0.00 | 0.06 | 0.06 | 58 | 1008.9 |
| 20260505174536 | 70 | 81 | 1.0 | 4.0 | 0.00 | 0.06 | 0.06 | 59 | 1009.0 |
| 20260505173034 | 71 | 70 | 1.0 | 7.0 | 0.00 | 0.06 | 0.06 | 60 | 1008.7 |
| 20260505171540 | 73 | 96 | 1.0 | 9.0 | 0.00 | 0.06 | 0.06 | 58 | 1008.5 |
| 20260505170038 | 74 | 262 | 0.0 | 7.0 | 0.00 | 0.06 | 0.06 | 56 | 1008.2 |
| 20260505164537 | 74 | 0 | 0.0 | 5.0 | 0.00 | 0.06 | 0.06 | 59 | 1008.2 |
| 20260505163043 | 74 | 115 | 0.0 | 8.0 | 0.00 | 0.06 | 0.06 | 57 | 1008.4 |
| 20260505161541 | 72 | 76 | 1.0 | 8.0 | 0.00 | 0.06 | 0.06 | 59 | 1008.7 |
| 20260505153039 | 73 | 94 | 0.0 | 5.0 | 0.00 | 0.06 | 0.06 | 62 | 1008.7 |
| 20260505151538 | 70 | 192 | 0.0 | 8.0 | 0.00 | 0.06 | 0.06 | 68 | 1008.4 |
| 20260505150104 | 69 | 156 | 1.0 | 7.0 | 0.00 | 0.06 | 0.06 | 63 | 1008.3 |
| 20260505124550 | 65 | 119 | 1.0 | 6.0 | 0.00 | 0.06 | 0.06 | 70 | 1009.1 |
| 20260505123050 | 64 | 103 | 1.0 | 4.0 | 0.00 | 0.06 | 0.06 | 72 | 1009.1 |
| 20260505121613 | 63 | 148 | 1.0 | 5.0 | 0.00 | 0.06 | 0.06 | 73 | 1009.1 |
| 20260505120042 | 63 | 144 | 2.0 | 8.0 | 0.00 | 0.06 | 0.06 | 73 | 1009.1 |
| 20260505114538 | 62 | 0 | 0.0 | 5.0 | 0.00 | 0.06 | 0.06 | 75 | 1009.0 |
| 20260505113041 | 61 | 172 | 1.0 | 5.0 | 0.00 | 0.06 | 0.06 | 76 | 1009.0 |
| 20260505111540 | 60 | 214 | 1.0 | 6.0 | 0.00 | 0.06 | 0.06 | 78 | 1008.8 |
| 20260505101542 | 60 | 128 | 0.0 | 4.0 | 0.00 | 0.06 | 0.06 | 80 | 1008.2 |
| 20260505100043 | 59 | 0 | 0.0 | 6.0 | 0.00 | 0.06 | 0.06 | 83 | 1008.1 |
| 20260505094541 | 58 | 0 | 0.0 | 3.0 | 0.00 | 0.06 | 0.06 | 84 | 1007.9 |
| 20260505093043 | 58 | 0 | 1.0 | 3.0 | 0.00 | 0.06 | 0.06 | 84 | 1007.7 |
| 20260505091559 | 57 | 0 | 0.0 | 1.0 | 0.00 | 0.06 | 0.06 | 86 | 1007.6 |
| 20260505090055 | 57 | 0 | 0.0 | 2.0 | 0.00 | 0.06 | 0.06 | 87 | 1007.7 |
| 20260505084539 | 57 | 0 | 0.0 | 1.0 | 0.00 | 0.06 | 0.06 | 87 | 1007.6 |
| 20260505083046 | 56 | 0 | 0.0 | 2.0 | 0.00 | 0.06 | 0.06 | 88 | 1007.6 |
| 20260505081545 | 57 | 0 | 0.0 | 2.0 | 0.01 | 0.06 | 0.06 | 88 | 1007.5 |
| 20260505080048 | 57 | 0 | 0.0 | 3.0 | 0.01 | 0.06 | 0.06 | 89 | 1007.5 |
| 20260505074542 | 57 | 0 | 0.0 | 4.0 | 0.03 | 0.06 | 0.06 | 89 | 1007.4 |
| 20260505073047 | 57 | 0 | 0.0 | 4.0 | 0.06 | 0.06 | 0.06 | 91 | 1007.4 |
| 20260505071541 | 57 | 0 | 0.0 | 4.0 | 0.05 | 0.05 | 0.05 | 90 | 1007.4 |
| 20260505070038 | 57 | 0 | 0.0 | 4.0 | 0.05 | 0.05 | 0.05 | 90 | 1007.3 |
| 20260505064542 | 58 | 212 | 0.0 | 6.0 | 0.03 | 0.03 | 0.03 | 86 | 1007.6 |
| 20260505063048 | 59 | 0 | 0.0 | 1.0 | 0.00 | 0.00 | 0.00 | 77 | 1007.4 |
| 20260505061540 | 60 | 0 | 0.0 | 0.0 | 0.00 | 0.00 | 0.00 | 76 | 1007.2 |
| 20260505060039 | 60 | 0 | 0.0 | 2.0 | 0.00 | 0.00 | 0.00 | 74 | 1007.4 |
| 20260505054551 | 60 | 0 | 0.0 | 2.0 | 0.00 | 0.00 | 0.00 | 74 | 1007.6 |
| 20260505053047 | 60 | 0 | 0.0 | 1.0 | 0.00 | 0.00 | 0.00 | 73 | 1007.6 |
| 20260505051544 | 61 | 0 | 0.0 | 0.0 | 0.00 | 0.00 | 0.00 | 73 | 1007.7 |